Location: Newark
(40.2531°N, 0.7525°W)
Time: 14:57:11
(UTC+00:00)

N. Korean satellite - Visible Passes

Search period start: 20 October 2019 00:00
Search period end: 30 October 2019 00:00
Orbit: 455 x 508 km, 97.2° (Epoch: 20 October)

Date Brightness Start Highest point End Pass type
(mag) Time Alt. Az. Time Alt. Az. Time Alt. Az.
20 Oct 10.4 04:52:40 10° ENE 04:53:51 11° E 04:55:02 10° ESE visible
21 Oct 10.0 18:08:15 10° SW 18:10:20 15° W 18:12:28 10° NW visible
22 Oct 8.3 05:33:26 10° NNE 05:36:52 38° E 05:40:19 10° SSE visible
22 Oct 8.7 17:41:48 10° SSW 17:44:54 32° W 17:48:02 10° NNW visible
23 Oct 9.8 05:08:49 10° NE 05:11:27 19° E 05:14:07 10° SE visible
25 Oct 7.1 05:50:43 10° NNE 05:54:22 68° ESE 05:58:02 10° S visible
25 Oct 9.7 17:59:53 10° SW 18:02:24 19° W 18:04:58 10° NW visible
26 Oct 8.8 05:25:42 10° NNE 05:29:00 31° E 05:32:18 10° SSE visible
26 Oct 8.1 17:33:43 10° S 17:36:59 41° W 17:40:18 10° NNW visible
27 Oct 10.1 05:01:18 10° NE 05:03:33 15° E 05:05:48 10° SE visible
28 Oct 10.3 18:18:42 10° WSW 18:19:57 12° W 18:21:14 10° WNW visible
29 Oct 7.6 05:42:51 10° NNE 05:46:28 53° E 05:50:06 10° S visible
29 Oct 9.3 17:51:36 10° SSW 17:54:27 24° W 17:57:21 10° NW visible
